Id;Fecha;Tmax;HTmax;Tmin;HTmin;Tmed;Racha;HRacha;Vmax;HVmax;TPrec;Prec1;Prec2;Prec3;Prec4
5402;2013-07-24;38.2;16:30;19.9;07:30;29.1;33;18:20;17;17:50;0;0;0;0;0
5402;2013-07-25;37.0;16:20;20.1;07:40;28.6;37;17:10;24;17:10;0;0;0;0;0
5402;2013-07-26;34.1;18:00;18.3;07:30;26.2;37;19:10;26;19:10;0;0;0;0;0
5402;2013-07-27;29.3;16:40;18.1;06:10;23.7;41;15:00;28;01:40;0;0;0;0;0
5402;2013-07-28;30.2;18:30;19.1;05:30;24.7;33;16:30;19;19:20;0;0;0;0;0
5402;2013-07-29;36.3;18:50;15.0;07:10;25.6;26;14:10;15;12:00;0;0;0;0;0
5402;2013-07-30;39.9;18:00;15.1;06:40;27.5;30;20:50;21;20:50;0;0;0;0;0
5402;2013-07-31;40.4;16:40;17.3;07:40;28.9;33;16:40;21;16:40;0;0;0;0;0
5402;2013-08-01;41.3;16:50;18.5;07:40;29.9;30;15:10;21;17:20;0;0;0;0;0
5402;2013-08-02;38.2;17:00;21.5;07:30;29.9;32;15:50;21;17:10;0;0;0;0;0
5402;2013-08-03;38.7;18:10;21.9;07:40;30.3;26;16:20;17;18:20;0;0;0;0;0
5402;2013-08-04;39.0;17:00;15.8;07:30;27.4;33;16:20;19;18:10;0;0;0;0;0
5402;2013-08-05;39.0;17:10;19.2;07:10;29.1;30;16:50;16;17:30;0;0;0;0;0
5402;2013-08-06;37.3;16:40;18.7;07:40;28;37;17:30;24;18:10;0;0;0;0;0
5402;2013-08-07;35.4;17:50;18.7;07:40;27.1;33;19:00;21;16:00;0;0;0;0;0
5402;2013-08-08;37.9;18:40;17.0;06:40;27.5;35;15:10;18;11:40;0;0;0;0;0
5402;2013-08-09;38.7;17:40;17.6;07:40;28.2;26;16:50;17;11:30;0;0;0;0;0
5402;2013-08-10;40.0;18:40;17.7;07:30;28.9;30;22:10;13;22:10;0;0;0;0;0
5402;2013-08-11;40.4;17:30;20.3;05:50;30.4;33;18:00;20;21:30;0;0;0;0;0
5402;2013-08-12;39.1;16:40;18.6;06:40;28.8;41;18:30;26;18:00;0;0;0;0;0
5402;2013-08-13;39.2;17:10;17.8;07:50;28.5;32;16:50;18;19:40;0;0;0;0;0
5402;2013-08-14;37.2;18:30;18.4;07:40;27.8;35;23:00;19;19:10;0;0;0;0;0
5402;2013-08-15;39.5;17:30;20.9;07:00;30.2;26;21:50;15;18:20;0;0;0;0;0
5402;2013-08-16;40.4;16:50;21.7;07:40;31.1;28;17:30;16;23:59;0;0;0;0;0
5402;2013-08-17;37.7;17:30;20.9;07:30;29.3;30;16:50;19;17:40;0;0;0;0;0
5402;2013-08-18;40.4;17:20;19.1;07:00;29.8;26;17:20;14;23:59;0;0;0;0;0
5402;2013-05-07;32.1;17:00;14.8;07:40;23.4;24;11:00;18;11:00;0;0;0;0;0
5402;2013-05-08;31.6;16:30;15.9;06:50;23.8;28;15:10;17;15:30;0;0;0;0;0
5402;2013-05-09;31.9;17:10;14.7;07:40;23.3;33;15:20;22;16:40;0;0;0;0;0
5402;2013-05-10;30.4;16:50;13.1;07:20;21.8;26;17:40;15;18:40;0;0;0;0;0
5402;2013-05-11;31.2;16:40;12.5;07:20;21.9;28;16:10;16;15:50;0;0;0;0;0
5402;2013-05-12;32.3;17:30;11.4;05:50;21.8;32;21:20;22;21:20;0;0;0;0;0
5402;2013-05-13;30.4;17:00;16.0;07:40;23.2;30;17:30;19;17:30;0;0;0;0;0
5402;2013-05-14;29.7;16:00;16.1;07:00;22.9;55;19:20;35;19:30;0;0;0;0;0
5402;2013-05-15;22.2;15:40;12.5;23:50;17.4;48;17:30;32;16:50;3.8;0;0;0.7;3.1
5402;2013-05-16;22.3;16:30;9.0;07:10;15.6;50;16:50;31;17:40;0.1;0;0;0.1;0
5402;2013-05-17;19.4;13:20;9.9;23:40;14.6;48;13:10;32;13:20;5.7;0.2;0;4.4;1.1
5402;2013-05-18;20.2;15:40;7.4;04:00;13.8;67;16:20;35;16:20;0.1;0;0;0.1;0
5402;2013-05-19;19.9;14:30;7.3;07:10;13.6;42;20:20;28;20:30;0.2;0;0;0;0.2
5402;2013-05-20;21.9;18:00;6.6;06:10;14.2;30;13:40;19;13:50;0;0;0;0;0
5402;2013-05-21;23.6;18:10;12.1;03:50;17.9;35;22:20;23;22:30;2.3;0;0;0.2;2.1
5402;2013-05-22;27.6;17:50;9.4;06:30;18.5;37;21:40;19;21:40;0;0;0;0;0
5402;2013-05-23;30.5;17:40;11.0;06:30;20.8;39;18:50;22;19:10;2;0;0;0;2
5402;2013-05-24;28.9;17:20;12.8;05:30;20.8;42;18:30;27;18:20;0;0;0;0;0
5402;2013-05-25;27.3;18:30;14.2;03:20;20.7;33;18:10;21;19:00;0;0;0;0;0
5402;2013-05-26;26.6;17:30;12.9;06:40;19.8;45;19:50;26;19:50;0;0;0;0;0
5402;2013-05-27;25.4;18:30;15.3;04:20;20.3;48;18:00;30;20:30;0;0;0;0;0
5402;2013-05-28;22.1;15:20;10.2;06:40;16.2;35;13:20;23;16:20;0;0;0;0;0
5402;2013-05-29;25.0;18:00;9.4;07:10;17.2;45;15:40;26;14:20;0;0;0;0;0
5402;2013-05-30;28.1;19:40;12.1;06:50;20.1;26;00:20;17;00:20;0;0;0;0;0
5402;2013-05-31;30.6;17:20;9.2;07:10;19.9;46;18:20;22;19:50;0;0;0;0;0
5402;2013-06-01;31.0;19:20;12.3;06:10;21.7;37;10:10;25;10:10;0;0;0;0;0
5402;2013-06-02;33.2;17:20;13.9;04:10;23.6;26;11:50;18;12:10;0;0;0;0;0
5402;2013-06-03;33.6;18:10;12.1;06:50;22.8;26;17:00;14;23:50;0;0;0;0;0
5402;2013-06-04;34.6;18:30;13.6;07:10;24.1;35;23:40;21;23:40;0;0;0;0;0
5402;2013-06-05;30.6;17:30;16.7;07:40;23.7;46;03:40;26;03:30;;0;0;;0
5402;2013-06-06;21.7;17:30;13.2;04:20;;40;20:00;24;19:30;;0;;0;0
5402;2013-06-07;25.0;16:00;14.4;23:40;19.7;52;22:00;31;22:00;0.3;0;0;0;0.3
5402;2013-06-08;23.0;15:00;10.1;06:50;16.6;35;17:50;20;18:10;0;0;0;0;0
5402;2013-06-09;25.4;17:30;10.1;07:00;17.8;33;15:20;19;16:50;0;0;0;0;0
5402;2013-06-10;28.9;18:00;12.6;07:10;20.8;33;16:10;19;16:00;;0;0;0;
5402;2013-06-11;32.9;18:10;12.5;06:50;22.7;26;16:30;13;19:40;0;0;0;0;0
5402;2013-06-12;36.6;16:50;15.5;06:50;26;22;23:40;15;23:40;0;0;0;0;0
5402;2013-06-13;37.9;16:40;18.8;06:50;28.4;26;18:10;14;00:40;0;0;0;0;0
5402;2013-06-14;38.3;17:40;18.5;07:10;28.4;32;15:40;18;19:00;0;0;0;0;0
5402;2013-06-15;37.6;16:40;18.2;06:50;27.9;33;17:20;19;17:20;0;0;0;0;0
5402;2013-06-16;36.8;16:30;16.9;06:40;26.8;41;16:00;24;18:00;0;0;0;0;0
5402;2013-06-17;27.6;19:50;14.8;06:50;21.2;42;21:40;30;21:40;0;0;0;0;0
5402;2013-06-18;21.8;16:10;12.0;07:20;16.9;52;14:10;27;14:10;0.8;0;0;0.2;0.6
5402;2013-06-19;24.2;20:10;10.9;07:10;;27;02:30;17;02:40;;0;0;;0
5402;2013-06-20;32.1;17:40;13.7;07:10;22.9;30;18:30;15;18:30;0;0;0;0;0
5402;2013-06-21;33.6;18:10;14.9;07:20;24.2;32;16:20;18;18:20;0;0;0;0;0
5402;2013-06-22;36.4;17:50;14.0;06:30;25.2;35;17:20;13;22:40;0;0;0;0;0
5402;2013-06-23;37.4;18:10;16.4;07:10;26.9;21;13:10;12;21:40;0;0;0;0;0
5402;2013-06-24;37.9;18:30;17.7;05:20;27.8;35;20:00;22;19:40;0;0;0;0;0
5402;2013-06-25;37.8;17:20;18.8;06:50;28.3;32;18:30;22;18:50;0;0;0;0;0
5402;2013-06-26;36.0;17:10;17.3;06:50;26.6;32;20:00;20;19:20;0;0;0;0;0
5402;2013-06-27;35.9;18:00;15.5;07:30;25.7;28;19:00;18;19:00;0;0;0;0;0
5402;2013-06-28;35.5;17:50;17.6;07:20;26.6;30;19:00;22;20:00;0;0;0;0;0
5402;2013-06-29;37.5;16:50;17.3;07:00;27.4;32;20:40;18;17:10;0;0;0;0;0
5402;2013-06-30;38.5;18:10;16.1;07:10;27.3;28;11:10;21;20:00;0;0;0;0;0
5402;2013-07-01;36.9;17:10;17.1;05:50;27;39;22:50;23;22:50;0;0;0;0;0
5402;2013-07-02;33.7;18:00;20.8;07:20;27.3;33;16:20;23;16:20;0;0;0;0;0
5402;2013-07-03;39.7;18:50;18.7;07:00;29.2;28;18:00;12;01:30;0;0;0;0;0
5402;2013-07-04;41.5;17:20;20.0;06:50;30.8;37;19:50;28;20:10;0;0;0;0;0
5402;2013-07-05;39.2;17:10;20.5;06:30;29.9;35;18:40;24;20:10;0;0;0;0;0
5402;2013-07-06;40.4;18:50;17.8;07:10;29.1;30;20:00;20;20:10;0;0;0;0;0
5402;2013-07-07;41.0;18:30;18.9;07:20;29.9;32;21:50;19;20:50;0;0;0;0;0
5402;2013-07-08;40.3;17:50;18.6;07:10;29.4;32;20:40;22;21:00;0;0;0;0;0
5402;2013-07-09;41.3;17:40;19.5;07:10;30.4;32;16:50;19;17:20;0;0;0;0;0
5402;2013-07-10;40.4;17:10;21.1;07:10;30.8;32;18:10;20;18:40;0;0;0;0;0
5402;2013-07-11;38.4;16:50;18.8;07:20;28.6;35;15:50;23;16:40;0;0;0;0;0
5402;2013-07-12;35.0;16:00;17.3;07:20;26.1;39;18:00;24;21:30;0;0;0;0;0
5402;2013-07-13;30.5;17:50;17.3;06:00;23.9;33;17:40;22;17:40;0;0;0;0;0
5402;2013-07-14;33.5;18:10;18.4;03:40;25.9;28;00:10;18;01:10;0;0;0;0;0
5402;2013-07-15;36.1;17:10;19.1;07:30;27.6;28;18:20;18;18:20;0;0;0;0;0
5402;2013-07-16;37.5;17:30;18.7;07:10;28.1;28;15:30;15;19:20;0;0;0;0;0
5402;2013-07-17;38.8;16:30;18.5;07:20;28.6;24;20:10;17;23:20;0;0;0;0;0
5402;2013-07-18;38.9;18:20;18.6;07:20;28.8;24;14:00;15;18:30;0;0;0;0;0
5402;2013-07-19;38.8;19:00;19.6;06:50;29.2;30;19:30;19;19:40;0;0;0;0;0
5402;2013-07-20;36.5;17:30;19.9;07:20;28.2;37;19:30;23;19:30;0;0;0;0;0
5402;2013-07-21;35.0;16:20;19.9;07:10;27.4;33;18:10;22;18:10;0;0;0;0;0
5402;2013-07-22;37.3;17:20;19.5;07:10;28.4;32;15:20;18;15:20;0;0;0;0;0
5402;2013-07-23;36.4;16:40;21.1;07:20;28.8;33;17:30;21;17:50;0;0;0;0;0
5402;2013-08-19;42.3;17:10;20.1;07:30;31.2;22;23:10;13;22:20;0;0;0;0;0
5402;2013-08-20;42.2;18:00;20.9;07:50;31.6;30;19:20;16;19:20;0;0;0;0;0
5402;2013-08-21;40.1;18:10;21.0;07:50;30.5;28;19:10;19;23:50;0;0;0;0;0
5402;2013-08-22;38.8;16:20;20.3;08:20;29.5;28;17:20;19;17:20;0;0;0;0;0
5402;2013-08-23;39.5;16:40;21.2;07:50;30.4;30;15:20;19;18:40;0;0;0;0;0
5402;2013-08-24;36.4;16:40;17.4;08:00;26.9;32;17:40;21;18:00;0;0;0;0;0
5402;2013-08-25;34.3;18:10;19.8;05:30;27;32;16:20;21;17:50;0;0;0;0;0
5402;2013-08-26;30.5;18:10;21.6;06:00;26.1;37;17:40;25;18:50;0;0;0;0;0
5402;2013-08-27;32.8;17:40;17.7;07:40;25.3;33;16:40;19;16:40;0;0;0;0;0
5402;2013-08-28;33.9;15:10;19.3;05:50;26.6;42;20:10;26;20:10;0;0;0;0;0
5402;2013-08-29;28.4;17:30;18.1;09:00;23.3;45;06:00;28;06:00;18.7;11.8;6.9;0;0
5402;2013-08-30;33.0;18:20;18.8;07:50;25.9;22;12:10;14;12:30;0;0;0;0;0
5402;2013-08-31;34.2;17:30;18.2;07:50;26.2;26;16:00;18;16:40;0;0;0;0;0
5402;2013-09-01;34.9;17:00;17.9;08:00;26.4;28;21:10;19;21:20;0;0;0;0;0
5402;2013-09-02;35.2;18:00;18.3;08:10;26.8;32;17:00;14;22:00;0;0;0;0;0
5402;2013-09-03;35.6;17:50;17.2;08:10;26.4;30;18:40;18;19:00;0;0;0;0;0
5402;2013-09-04;35.2;17:00;17.7;06:30;26.5;28;19:40;19;19:50;0;0;0;0;0
5402;2013-09-05;32.5;16:50;17.6;07:40;25.1;37;21:10;24;21:10;0;0;0;0;0
5402;2013-09-06;30.4;17:10;18.8;07:40;24.6;33;23:50;23;23:59;0;0;0;0;0
5402;2013-09-07;29.3;16:40;19.2;08:10;24.3;41;00:10;26;17:50;0;0;0;0;0
5402;2013-09-08;31.8;17:50;17.6;08:00;24.7;26;15:00;12;15:50;0;0;0;0;0
5402;2013-09-09;34.9;16:50;16.1;08:00;25.5;28;16:20;13;23:59;0;0;0;0;0
5402;2013-09-10;34.8;17:50;16.7;08:00;25.8;26;01:40;14;01:40;0;0;0;0;0
5402;2013-09-11;36.0;18:10;17.3;07:20;26.6;32;22:10;22;20:40;0;0;0;0;0
5402;2013-09-12;35.3;17:30;17.5;07:40;26.4;18;12:30;10;23:00;0;0;0;0;0
5402;2013-09-13;34.5;16:10;18.7;08:00;26.6;42;19:30;25;19:40;0;0;0;0;0
5402;2013-09-14;32.9;16:30;20.9;07:30;26.9;30;19:10;20;19:20;0;0;0;0;0
5402;2013-09-15;32.9;17:40;19.4;08:10;26.2;33;17:00;18;01:00;0;0;0;0;0
5402;2013-09-16;33.9;17:10;17.2;07:50;25.6;32;16:00;21;17:00;0;0;0;0;0
5402;2013-09-17;30.5;17:50;21.0;02:50;25.8;33;18:50;21;20:10;0;0;0;0;0
5402;2013-09-18;28.8;17:30;19.0;02:50;23.9;35;22:20;24;22:20;0;0;0;0;0
5402;2013-09-19;32.0;18:10;17.2;04:30;24.6;32;00:30;21;00:10;0;0;0;0;0
5402;2013-09-20;35.5;16:30;16.6;07:00;26.1;28;13:20;18;10:40;0;0;0;0;0
5402;2013-09-21;34.4;16:50;17.0;06:20;25.7;18;12:00;11;23:50;0;0;0;0;0
5402;2013-09-22;35.5;16:40;15.8;08:30;25.7;35;18:10;19;18:30;0;0;0;0;0
5402;2013-09-23;34.6;17:10;14.8;08:00;24.7;26;22:10;17;21:50;0;0;0;0;0
5402;2013-09-24;32.3;16:20;18.5;09:00;25.4;30;16:30;17;16:30;0;0;0;0;0
5402;2013-09-25;31.1;16:50;17.1;08:20;24.1;30;16:50;19;18:40;0;0;0;0;0
5402;2013-09-26;31.3;17:00;15.1;08:00;23.2;33;15:40;21;17:40;0;0;0;0;0
5402;2013-09-27;29.1;15:00;18.9;04:40;24;41;14:40;27;17:30;3.2;0;0;0;3.2
5402;2013-09-28;25.6;15:40;18.5;05:30;22.1;52;16:30;37;16:30;0.1;0.1;0;0;0
5402;2013-09-29;25.3;16:50;18.4;04:00;21.8;37;18:10;25;17:40;5;5;0;0;0
5402;2013-09-30;25.0;16:30;19.2;01:50;22.1;46;15:50;29;11:20;10.9;5.3;3.4;2;0.2
5402;2013-10-01;26.9;18:20;19.5;23:59;23.2;32;14:10;20;14:20;0.5;0;0.5;0;0
5402;2013-10-02;31.0;16:50;16.1;07:50;23.6;26;22:50;15;22:50;0;0;0;0;0
5402;2013-10-03;29.2;17:00;19.9;09:10;24.6;26;03:40;18;03:20;0;0;0;0;0
5402;2013-10-04;29.4;17:40;19.9;07:00;24.6;35;14:50;17;17:30;0.1;0;0.1;0;0
5402;2013-10-05;30.6;17:20;13.6;08:00;22.1;24;15:40;13;15:20;0;0;0;0;0
5402;2013-10-06;31.3;16:40;13.3;08:20;22.3;18;12:20;13;12:20;0;0;0;0;0
5402;2013-10-07;30.9;16:40;15.1;08:10;23;18;22:00;10;11:30;0;0;0;0;0
5402;2013-10-08;31.0;16:50;14.9;06:50;22.9;21;15:50;11;12:00;0;0;0;0;0
5402;2013-10-09;30.7;17:40;14.5;07:30;22.6;24;13:10;14;13:50;0;0;0;0;0
5402;2013-10-10;30.8;17:40;14.7;05:40;22.7;24;18:30;15;18:30;0;0;0;0;0
5402;2013-10-11;30.3;16:10;12.5;08:30;21.4;32;16:10;21;16:50;0;0;0;0;0
5402;2013-10-12;24.9;16:50;12.5;07:10;18.7;45;18:10;29;18:10;0;0;0;0;0
5402;2013-10-13;25.6;17:10;9.7;08:00;17.7;18;15:40;10;00:10;0;0;0;0;0
5402;2013-10-14;27.6;16:10;10.2;07:50;18.9;23;18:20;15;18:10;0;0;0;0;0
5402;2013-10-15;29.3;16:00;12.4;08:10;20.8;15;16:10;7;00:20;0;0;0;0;0
5402;2013-10-16;31.2;18:00;11.6;07:40;21.4;18;13:40;9;12:50;0;0;0;0;0
5402;2013-10-17;27.4;17:40;13.1;07:30;;20;17:30;11;17:30;;0;0;;0
5402;2013-10-18;27.5;17:10;9.7;07:30;18.6;33;16:10;23;16:10;0;0;0;0;0
5402;2013-10-19;27.0;16:20;16.8;08:00;21.9;33;19:30;23;19:40;0;0;0;0;0
5402;2013-10-20;26.8;16:50;15.1;23:59;20.9;22;15:40;11;04:50;0;0;0;0;0
5402;2013-10-21;26.6;16:50;9.6;08:50;18.1;24;16:50;17;17:10;0;0;0;0;0
5402;2013-10-22;21.5;13:40;13.8;03:10;17.7;52;20:00;33;20:00;18.7;0;0;7.3;11.4
5402;2013-10-23;24.1;15:50;17.6;08:50;20.9;26;00:10;16;00:10;0.2;0.1;0;0.1;0
5402;2013-10-24;26.4;16:10;17.5;06:40;21.9;55;16:50;36;16:50;0;0;0;0;0
5402;2013-10-25;22.6;16:50;17.7;05:10;20.2;28;14:10;17;14:10;2.4;0;0.3;2.1;0
5402;2013-10-26;21.7;14:00;15.0;23:50;18.4;18;14:50;11;14:50;1;1;0;0;0
5402;2013-10-27;27.0;15:50;11.8;07:40;19.4;24;11:50;17;12:00;0;0;0;0;0
5402;2013-10-28;28.3;15:30;12.6;07:40;20.4;28;21:50;15;16:30;0;0;0;0;0
5402;2013-10-29;16.7;15:50;9.5;07:50;;40;17:00;22;17:10;;;;;
5402;2013-10-30;17.8;15:10;6.6;06:20;;26;14:20;15;10:20;;;0;0;0
5402;2013-10-31;22.0;15:50;6.1;04:30;14;24;12:20;15;09:30;0;0;0;0;0
5402;2013-11-01;23.3;16:10;4.9;07:10;14.1;21;11:20;15;11:40;0;0;0;0;0
5402;2013-11-02;26.5;15:50;6.3;06:50;16.4;26;10:20;20;10:30;0;0;0;0;0
5402;2013-11-03;24.2;14:50;6.1;07:20;15.2;13;10:30;8;17:40;0;0;0;0;0
5402;2013-11-04;18.5;15:00;6.5;06:20;12.5;33;16:40;22;16:40;0;0;0;0;0
5402;2013-11-05;25.0;15:50;12.8;23:50;18.9;33;13:20;19;02:40;0;0;0;0;0
5402;2013-11-06;26.2;16:00;9.3;07:20;17.8;21;11:40;12;13:00;;0;0;;0
5402;2013-11-07;22.7;16:10;9.8;05:40;16.3;28;21:40;14;21:40;0;0;0;0;0
5402;2013-11-08;20.2;15:00;7.6;06:40;13.9;17;15:10;8;15:10;0;0;0;0;0
5402;2013-11-09;21.9;16:00;8.4;07:50;15.1;33;02:30;18;02:50;0;0;0;0;0
5402;2013-11-10;21.9;15:50;5.5;07:50;13.7;21;11:10;12;11:10;0;0;0;0;0
5402;2013-11-11;24.1;15:40;8.6;00:50;16.4;35;12:10;24;12:10;0;0;0;0;0
5402;2013-11-12;25.3;16:30;8.4;06:20;16.8;30;11:30;19;12:00;0;0;0;0;0
5402;2013-11-13;22.4;14:00;7.8;07:50;15.1;41;18:30;28;16:10;0;0;0;0;0
5402;2013-11-14;23.6;15:10;9.1;07:50;16.4;24;09:50;18;09:50;0;0;0;0;0
5402;2013-11-15;19.4;14:50;4.6;05:10;12;46;16:30;31;16:50;0;0;0;0;0
5402;2013-11-16;15.5;14:40;0.9;07:30;8.2;35;13:40;24;13:20;0;0;0;0;0
5402;2013-11-17;15.2;15:10;-0.3;08:20;7.4;30;15:20;16;15:40;2.7;0;0;0;2.7
5402;2013-11-18;15.9;16:40;6.2;23:20;11;37;13:40;23;14:00;3.7;3.7;0;0;0
5402;2013-11-19;15.7;16:10;2.3;08:30;9;21;14:50;15;16:30;0;0;0;0;0
5402;2013-11-20;15.4;16:10;1.4;08:30;8.4;28;11:40;21;13:00;0;0;0;0;0
5402;2013-11-22;9.9;16:10;1.1;07:10;5.5;18;00:20;14;00:30;1.3;0;0;1.2;0.1
5402;2013-11-23;13.8;15:00;3.9;08:30;8.9;32;13:00;22;14:00;0;0;0;0;0
5402;2013-11-24;15.7;16:10;2.3;06:10;9;35;12:00;22;11:50;0;0;0;0;0
5402;2013-11-25;15.8;15:20;-0.3;04:50;7.8;32;11:00;24;11:20;0;0;0;0;0
5402;2013-11-26;16.2;16:00;-1.7;06:00;7.3;30;10:20;17;10:30;0;0;0;0;0
5402;2013-11-27;16.8;16:00;1.8;04:50;9.3;30;12:40;22;10:30;0;0;0;0;0
5402;2013-11-28;16.2;15:00;1.9;04:30;9.1;35;12:10;26;12:10;0;0;0;0;0
5402;2013-11-29;16.7;16:00;1.6;08:00;9.2;30;13:30;21;13:40;0;0;0;0;0
5402;2013-11-30;14.2;15:00;-2.0;05:20;6.1;22;10:30;15;11:30;0;0;0;0;0
5402;2013-12-01;15.6;14:50;0.0;05:00;7.8;32;12:50;21;15:10;0;0;0;0;0
5402;2013-12-02;16.5;16:30;1.2;08:30;8.9;30;11:10;22;11:20;0;0;0;0;0
5402;2013-12-03;17.7;15:30;-0.6;06:30;8.6;32;12:30;21;11:30;0;0;0;0;0
5402;2013-12-04;19.6;16:20;0.8;04:50;10.2;24;13:00;16;13:00;0;0;0;0;0
5402;2013-12-05;19.4;16:20;2.1;05:00;10.7;26;11:50;19;11:50;0;0;0;0;0
5402;2013-12-06;18.7;16:00;0.8;05:40;9.8;30;12:30;21;12:10;0;0;0;0;0
5402;2013-12-07;18.8;16:10;-1.0;08:00;8.9;17;12:00;11;12:10;0;0;0;0;0
5402;2013-12-08;17.7;16:50;-2.7;07:10;7.5;21;11:30;14;12:40;0;0;0;0;0
5402;2013-12-09;17.1;16:20;-1.4;04:20;7.9;30;12:40;22;12:50;0;0;0;0;0
5402;2013-12-10;17.7;15:10;0.7;08:10;9.2;22;11:20;17;09:10;0;0;0;0;0
5402;2013-12-11;18.8;14:50;-0.4;04:00;9.2;28;13:50;20;14:10;0;0;0;0;0
5402;2013-12-12;17.6;16:00;2.0;03:00;9.8;13;10:50;6;11:10;0;0;0;0;0
5402;2013-12-13;13.0;15:10;3.6;07:10;8.3;17;21:10;12;21:10;0.2;0;0;0;0.2
5402;2013-12-14;20.4;15:40;6.0;23:59;13.2;26;11:30;19;11:40;0;0;0;0;0
5402;2013-12-15;18.3;15:50;2.7;07:00;10.5;24;12:00;18;12:50;0;0;0;0;0
5402;2013-12-16;17.9;16:30;0.5;06:30;9.2;22;13:20;16;11:00;0;0;0;0;0
5402;2013-12-17;14.4;15:00;5.9;05:00;10.1;18;09:40;14;09:40;0.1;0;0;0.1;0
5402;2013-12-18;16.7;16:10;9.3;23:59;13;26;16:20;18;17:20;0;0;0;0;0
5402;2013-12-19;13.6;15:30;7.8;23:59;10.7;52;15:40;33;15:40;;0;0.9;;0
5402;2013-12-20;14.9;15:50;2.9;23:50;8.9;41;15:20;23;15:20;0;0;0;0;0
5402;2013-12-21;15.7;16:20;1.2;05:10;8.4;30;11:40;22;11:50;0;0;0;0;0
5402;2013-12-22;13.8;15:50;0.3;08:40;;14;13:40;7;13:30;;0;0;0;
5402;2013-12-23;16.8;17:00;1.2;08:40;9;18;11:00;14;11:00;0;0;0;0;0
5402;2013-12-24;15.6;23:00;0.8;05:00;8.2;84;23:20;55;23:10;0.4;0;0;0;0.4
5402;2013-12-25;15.1;00:40;6.6;23:00;10.9;91;00:40;61;01:20;49.5;27.7;16.5;5.3;0
5402;2013-12-26;16.1;16:10;7.0;00:00;11.6;35;15:40;23;15:40;0;0;0;0;0
5402;2013-12-27;13.9;15:00;10.3;05:10;12.1;30;23:20;19;23:30;1.4;0;0.1;1.1;0.2
5402;2013-12-28;15.7;15:20;6.0;23:50;10.8;54;07:00;33;04:00;4.2;0.5;3.7;0;0
5402;2013-12-29;14.4;17:00;1.0;08:50;7.7;17;00:10;10;00:10;0;0;0;0;0
5402;2013-12-30;12.5;16:30;0.1;07:40;6.3;26;11:50;19;11:50;0;0;0;0;0
5402;2013-12-31;13.7;15:20;1.0;05:10;7.3;18;11:50;13;11:50;0.1;0;0;0;0.1
5402;2014-01-01;10.5;23:40;8.0;00:50;9.3;18;10:40;13;11:40;5;0;2.6;0.5;1.9
5402;2014-01-02;15.8;15:40;10.5;00:00;13.2;39;12:20;26;15:30;;0;;1.7;1.8
5402;2014-01-03;15.9;16:20;14.0;09:30;14.9;35;01:20;24;04:10;3;0.6;1;1.4;0
5402;2014-01-04;17.1;15:20;9.5;23:59;13.3;80;15:20;51;14:10;5.7;5.3;0;0.4;0
5402;2014-01-05;15.4;16:50;4.0;08:30;9.7;18;14:20;7;13:50;0;0;0;0;0
5402;2014-01-06;17.2;16:00;4.5;08:50;10.9;24;05:40;18;05:40;0;0;0;0;0
5402;2014-01-07;16.0;16:30;3.4;04:10;9.7;21;10:40;15;13:00;0;0;0;0;0
5402;2014-01-08;18.3;16:00;4.2;06:40;11.2;24;13:00;16;12:00;0;0;0;0;0
5402;2014-01-09;17.4;15:20;3.8;08:20;10.6;26;13:40;15;13:50;0;0;0;0;0
5402;2014-01-10;15.3;14:30;3.7;04:30;9.5;18;09:00;13;09:10;0;0;0;0;0
5402;2014-01-11;18.2;15:40;6.9;09:00;12.6;18;12:20;14;12:20;0;0;0;0;0
5402;2014-01-12;16.1;16:20;7.0;00:30;11.6;17;07:30;12;08:50;0;0;0;0;0
5402;2014-01-13;14.2;16:10;5.3;23:59;9.8;26;16:30;15;16:30;8.2;0;8.2;0;0
5402;2014-01-14;14.5;16:10;5.0;01:00;9.8;35;14:20;25;14:20;0;0;0;0;0
5402;2014-01-15;14.0;13:30;8.3;06:00;11.2;26;00:10;17;00:10;0;0;0;0;0
5402;2014-01-16;13.7;15:00;7.4;23:59;10.5;24;08:40;16;08:50;3;2.1;0.9;0;0
5402;2014-01-17;13.6;13:00;5.5;02:30;9.6;54;13:30;28;13:30;4.3;0;0.3;2.6;1.4
5402;2014-01-18;12.5;14:40;8.3;07:10;10.4;45;15:00;29;15:00;12;7.8;1.8;1.5;0.9
5402;2014-01-19;12.9;17:10;4.7;23:40;8.8;41;17:00;28;17:10;20;16.7;3.3;0;0
5402;2014-01-20;13.6;15:50;1.2;08:30;7.4;33;15:20;21;15:20;0;0;0;0;0
5402;2014-01-21;12.7;14:20;4.7;02:50;8.7;28;22:10;17;22:20;6.4;0;0;0;6.4
5402;2014-01-22;17.4;16:20;9.3;07:50;13.3;37;14:50;23;15:00;12.9;12.9;0;0;0
5402;2014-01-23;16.5;15:00;4.1;08:30;10.3;35;02:30;22;02:30;0.3;0.3;0;0;0
5402;2014-01-24;15.9;16:50;1.2;08:20;8.5;18;10:50;14;11:00;0;0;0;0;0
5402;2014-01-25;16.7;17:10;3.2;06:50;10;13;13:00;7;14:00;0;0;0;0;0
5402;2014-01-26;20.3;16:10;3.4;08:40;11.8;24;17:00;17;17:00;0;0;0;0;0
5402;2014-01-27;16.9;13:50;8.2;22:50;12.5;46;16:10;33;16:10;0;0;0;0;0
5402;2014-01-28;12.4;14:00;4.1;08:00;8.2;45;19:10;28;19:20;0.3;0;0;0;0.3
5402;2014-01-29;13.1;13:50;5.9;23:59;9.5;46;09:30;24;11:50;0.6;0;0.6;0;0
5402;2014-01-30;14.2;16:40;1.0;08:30;7.6;30;16:40;19;17:00;0;0;0;0;0
5402;2014-01-31;12.2;16:50;7.3;00:30;9.8;24;02:20;17;03:50;0.4;0;0;0.3;0.1
5402;2014-02-01;17.0;14:40;6.5;23:30;11.8;39;16:20;28;16:30;0;0;0;0;0
5402;2014-02-02;13.3;15:50;0.8;07:40;7.1;21;13:20;12;16:10;0;0;0;0;0
5402;2014-02-03;11.4;16:20;0.4;03:40;5.9;18;09:50;14;11:20;2.3;0;0.9;1.4;0
5402;2014-02-04;12.2;21:20;0.9;05:50;6.5;52;23:20;38;23:30;0.2;0;0;0.1;0.1
5402;2014-02-05;16.5;15:00;11.8;03:10;14.2;59;01:40;39;01:40;5.9;2.3;3;0;0.6
5402;2014-02-06;17.2;13:40;9.8;23:59;13.5;61;14:00;46;14:00;7.4;3.8;0.1;0;3.5
5402;2014-02-07;14.4;15:20;7.5;08:30;10.9;37;15:10;24;15:20;0;0;0;0;0
5402;2014-02-08;14.0;16:00;9.8;07:00;11.9;72;15:40;44;15:40;8.1;0.1;1.4;6.6;0
5402;2014-02-09;15.7;17:10;7.4;04:40;11.5;82;22:40;54;22:40;22.3;0;0.2;14.5;7.6
5402;2014-02-10;13.3;16:00;5.4;23:59;9.4;63;00:30;42;00:30;0.2;0.2;0;0;0
5402;2014-02-11;12.3;23:00;2.2;08:10;7.3;39;18:50;23;18:50;20.4;0;0.2;8.9;11.3
5402;2014-02-12;14.8;14:20;4.9;07:20;9.9;22;23:59;13;23:59;1.7;0;0;0.2;1.5
5402;2014-02-13;16.7;18:00;13.8;00:00;15.3;41;11:40;25;05:00;0.4;0.1;0;0.3;0
5402;2014-02-14;13.8;15:30;10.9;23:50;;52;23:30;29;21:10;;0.1;0.2;;0
5402;2014-02-15;16.7;13:30;8.6;23:59;12.7;26;14:00;16;14:00;9.9;0;0.5;0;9.4
5402;2014-02-16;15.9;16:00;5.9;23:50;10.9;28;16:20;14;16:20;;0;0;0;
5402;2014-02-17;14.7;15:00;4.8;02:20;9.8;28;23:10;18;23:10;0;0;0;0;0
5402;2014-02-18;14.5;13:00;6.6;23:59;10.5;26;17:30;12;17:30;1.8;1.7;0.1;0;0
5402;2014-02-19;16.5;16:50;3.2;06:10;9.9;15;10:30;10;21:50;0;0;0;0;0
5402;2014-02-20;13.9;15:50;4.7;03:40;9.3;15;16:30;10;17:00;0;0;0;0;0
5402;2014-02-21;13.0;16:10;4.6;23:30;;35;05:10;15;05:10;;0.6;;0;0
5402;2014-02-22;16.6;17:00;1.4;07:50;9;17;00:10;12;00:10;0;0;0;0;0
5402;2014-02-23;20.3;16:20;4.1;07:50;12.2;37;21:10;24;21:20;0;0;0;0;0
5402;2014-02-24;16.6;15:30;7.1;23:59;11.9;41;03:10;24;00:40;3.6;2.2;1.4;0;0
5402;2014-02-25;14.8;13:20;4.3;07:20;9.6;22;18:20;17;18:20;0;0;0;0;0
5402;2014-02-26;17.2;15:30;6.5;07:30;11.9;36;15:10;19;16:10;;0;0;;0
5402;2014-02-27;15.3;15:00;4.2;02:20;9.8;24;15:30;16;15:40;0;0;0;0;0
5402;2014-02-28;17.0;17:00;5.7;06:20;11.3;32;13:10;23;15:10;0;0;0;0;0
5402;2014-03-01;14.9;20:10;10.6;08:30;12.8;54;19:40;32;20:30;4;0;1.4;0.3;2.3
5402;2014-03-02;18.9;13:40;12.4;06:00;15.6;46;22:10;30;03:40;0.1;0.1;0;0;0
5402;2014-03-03;16.1;16:30;7.9;23:59;12;52;15:10;30;13:30;;1.1;0;;0
5402;2014-03-04;16.6;16:10;5.2;04:20;10.9;37;13:00;24;13:00;0;0;0;0;0
5402;2014-03-05;20.5;16:40;8.1;06:30;14.3;30;03:30;19;03:30;0;0;0;0;0
5402;2014-03-06;23.9;17:50;5.7;05:00;14.8;26;12:10;16;12:00;;0;0;;0
5402;2014-03-07;22.9;17:00;4.9;07:50;13.9;21;20:40;13;20:40;0;0;0;0;0
5402;2014-03-08;22.9;16:00;5.6;05:50;14.2;35;11:00;25;11:00;0;0;0;0;0
5402;2014-03-09;22.4;16:40;5.1;08:00;13.7;22;11:30;15;11:30;0;0;0;0;0
5402;2014-03-10;21.1;16:50;4.4;05:40;12.8;26;10:50;16;10:50;0;0;0;0;0
5402;2014-03-11;24.3;17:30;1.8;07:20;13;24;12:10;16;12:00;0;0;0;0;0
5402;2014-03-12;19.9;15:30;6.8;07:30;13.3;41;17:20;26;12:30;0;0;0;0;0
5402;2014-03-13;20.0;16:20;6.4;04:20;13.2;52;18:20;33;18:20;1.3;0;0;0;1.3
5402;2014-03-14;18.2;14:20;4.8;06:10;11.5;28;13:50;19;14:50;0;0;0;0;0
5402;2014-03-15;23.1;17:20;2.7;05:40;12.9;30;15:00;17;15:00;0;0;0;0;0
5402;2014-03-16;25.3;17:20;3.1;07:30;14.2;18;09:30;14;09:50;0;0;0;0;0
5402;2014-03-17;26.8;16:40;5.5;05:30;16.1;24;10:50;17;10:50;0;0;0;0;0
5402;2014-03-18;25.7;17:00;4.7;07:30;15.2;17;10:20;10;10:20;0;0;0;0;0
5402;2014-03-19;23.9;16:20;8.3;06:50;16.1;28;15:50;18;16:40;0;0;0;0;0
5402;2014-03-20;22.1;15:40;6.2;07:10;;25;17:30;15;17:30;;;0;0;0
5402;2014-03-21;22.4;16:40;8.7;07:30;15.5;24;14:50;16;22:50;0;0;0;0;0
5402;2014-03-22;19.4;17:20;8.9;05:40;14.1;28;18:50;16;19:00;0;0;0;0;0
5402;2014-03-23;20.5;16:10;2.3;07:30;11.4;24;12:40;13;02:40;0;0;0;0;0
5402;2014-03-24;20.3;16:00;1.6;07:00;10.9;41;17:40;28;17:50;0;0;0;0;0
5402;2014-03-25;20.1;16:50;3.4;07:10;11.8;52;21:00;36;19:20;0;0;0;0;0
5402;2014-03-26;19.5;16:40;6.4;06:10;13;46;00:20;28;00:30;;0;;0;0
5402;2014-03-27;17.4;16:00;2.6;07:20;10;35;16:30;23;17:00;0;0;0;0;0
5402;2014-03-28;11.6;12:20;3.7;02:20;;26;13:40;17;15:10;;0;;;
5402;2014-03-29;8.5;17:10;6.1;00:10;;28;14:00;14;14:00;;;;;
5402;2014-03-30;18.1;17:50;7.7;08:40;12.9;47;23:00;27;23:00;0.7;0;0;0;0.7
5402;2014-03-31;18.2;16:40;9.5;08:00;;44;16:20;22;15:20;;0;0;;0
5402;2014-04-01;22.9;16:20;12.3;08:20;17.6;55;16:30;39;17:30;0;0;0;0;0
5402;2014-04-02;13.1;00:00;8.5;23:30;;40;19:40;25;19:40;;0;5.1;4.2;
5402;2014-04-03;13.6;14:40;6.4;08:30;;37;17:10;20;17:10;;;;;
5402;2014-04-04;18.8;16:20;6.3;07:40;12.5;54;14:10;25;15:40;0;0;0;0;0
5402;2014-04-05;22.5;18:00;12.6;02:10;17.6;21;00:20;13;00:20;0;0;0;0;0
5402;2014-04-06;24.1;19:10;9.9;01:40;;23;11:40;10;11:10;;;0;0;0
5402;2014-04-08;27.7;17:50;11.4;06:50;;18;13:40;9;19:00;;0;0;0;
5402;2014-04-09;26.3;16:20;10.5;08:00;;28;14:20;17;13:50;;;;;
5402;2014-04-10;31.7;15:50;10.6;07:30;21.2;35;15:10;26;00:30;0;0;0;0;0